Location: Newark
(46.1292°N, 1.0086°W)
Time: 05:38:41
(UTC+00:00)

Vanguard 3 - Pass Details

Date: 16 November 2019
Orbit: 508 x 3263 km, 33.3° (Epoch: 13 December)

Event Time Altitude Azimuth Distance (km) Brightness Sun altitude
Rises 18:18:55 0° 266° (W) 7,050 13.6 -18.6°
Reaches altitude 10° 18:24:21 10° 261° (W) 5,785 12.7 -19.5°
Maximum altitude 18:39:12 42° 200° (SSW) 2,822 10.0 -22.1°
Enters shadow 18:47:14 15° 138° (SE) 3,384 9.9 -23.4°
Drops below altitude 10° 18:48:27 10° 133° (SE) 3,651 - -23.6°
Sets 18:51:05 0° 126° (SE) 4,315 - -24.1°
